Folgueroles





Hora UTC 21:50
Temperatura 7.1 ºC
Humitat 91.0 %
Pressió 1023.9 hPa
Pluja 7.4 mm
Velocitat vent 0.0 km/h
Direcció vent W

Dades diàries 2020-01-29



Hora UTC (hivern +1h; estiu +2h)
Temperatura (ºC) Humitat (%) Pressió (hPa) Velocitat vent (km/h) Precipitació (mm)
Hora UTC Aire Humitat Pressió Vel. Dir. Vel. Max Dir. Intent. màx 5 min.
00:05 3.1 93.0 1021.4 0.0 S 0.0 0.0
00:10 3.1 93.0 1021.3 0.0 S 1.6 1.0
00:15 3.1 93.0 1021.2 0.0 S 1.6 0.0
00:20 3.0 94.0 1021.2 0.0 S 1.6 0.0
00:25 3.0 94.0 1021.0 0.0 S 0.0 0.0
00:30 3.1 94.0 1021.1 1.6 S 3.2 0.0
00:35 3.1 94.0 1021.2 0.0 S 3.2 0.0
00:35 3.1 94.0 1021.2 0.0 S 3.2 0.0
00:45 3.1 94.0 1021.3 0.0 S 0.0 0.0
00:50 3.1 94.0 1021.4 0.0 S 0.0 0.0
00:55 3.1 94.0 1021.3 0.0 S 0.0 0.0
01:00 3.1 94.0 1021.4 0.0 S 0.0 0.0
01:05 2.9 94.0 1021.3 0.0 S 0.0 0.0
01:10 2.9 94.0 1021.3 0.0 S 0.0 0.0
01:15 2.8 94.0 1021.3 1.6 S 3.2 0.0
01:20 2.8 94.0 1021.3 0.0 S 3.2 0.0
01:25 2.8 94.0 1021.3 0.0 S 0.0 0.0
01:30 2.8 94.0 1021.3 0.0 S 0.0 0.0
01:35 2.8 94.0 1021.2 0.0 S 0.0 0.0
01:35 2.8 94.0 1021.2 0.0 S 0.0 0.0
01:45 3.0 94.0 1021.2 0.0 S 0.0 0.0
01:50 3.2 95.0 1021.3 0.0 S 0.0 0.0
01:55 3.3 95.0 1021.3 0.0 S 0.0 0.0
02:00 3.2 95.0 1021.2 0.0 ESE 4.8 0.0
02:05 3.2 95.0 1021.1 0.0 ESE 4.8 0.0
02:10 3.2 95.0 1021.3 0.0 ESE 0.0 0.0
02:15 3.2 95.0 1021.2 0.0 ESE 0.0 0.0
02:20 3.2 95.0 1021.2 0.0 ESE 0.0 0.0
02:25 3.2 95.0 1021.2 0.0 ESE 0.0 0.0
02:30 3.2 95.0 1021.1 0.0 ESE 1.6 0.0
02:35 3.2 95.0 1021.0 0.0 ESE 1.6 0.0
02:35 3.2 94.0 1021.0 0.0 ESE 1.6 0.0
02:45 3.1 94.0 1021.0 0.0 W 4.8 0.0
02:50 2.8 94.0 1021.0 0.0 W 4.8 0.0
02:55 2.6 94.0 1020.9 0.0 W 3.2 0.0
03:00 2.4 93.0 1021.0 0.0 W 0.0 0.0
03:05 2.3 94.0 1020.9 0.0 W 0.0 0.0
03:10 2.2 94.0 1021.0 0.0 W 0.0 0.0
03:15 2.1 94.0 1021.1 0.0 W 0.0 0.0
03:20 2.1 94.0 1021.2 0.0 W 0.0 0.0
03:25 2.0 94.0 1021.1 0.0 W 0.0 0.0
03:30 1.9 94.0 1021.0 0.0 W 0.0 0.0
03:35 1.9 94.0 1020.9 0.0 W 0.0 0.0
03:35 1.9 94.0 1020.9 0.0 W 0.0 0.0
03:40 1.8 94.0 1021.0 0.0 W 0.0 0.0
03:50 1.7 94.0 1021.0 0.0 W 1.6 0.0
03:55 1.7 94.0 1021.0 0.0 W 1.6 0.0
04:00 1.6 94.0 1021.1 0.0 W 3.2 0.0
04:05 1.4 94.0 1021.1 0.0 W 0.0 0.0
04:10 1.3 94.0 1021.1 0.0 W 0.0 0.0
04:15 1.3 94.0 1021.2 0.0 W 0.0 0.0
04:20 1.3 95.0 1021.3 0.0 W 0.0 0.0
04:25 1.3 95.0 1021.4 0.0 W 0.0 0.0
04:30 1.3 95.0 1021.3 0.0 W 0.0 0.0
04:35 1.3 95.0 1021.3 0.0 W 0.0 0.0
04:35 1.3 95.0 1021.5 0.0 W 0.0 0.0
04:45 1.3 95.0 1021.6 0.0 W 0.0 0.0
04:50 1.3 95.0 1021.5 0.0 W 0.0 0.0
04:55 1.3 95.0 1021.4 0.0 W 0.0 0.0
05:00 1.3 95.0 1021.4 0.0 W 0.0 0.0
05:05 1.3 95.0 1021.5 0.0 W 0.0 0.0
05:10 1.3 95.0 1021.5 0.0 W 0.0 0.0
05:15 1.4 95.0 1021.6 0.0 W 0.0 0.0
05:20 1.4 95.0 1021.7 0.0 W 0.0 0.0
05:25 1.4 95.0 1021.6 0.0 W 0.0 0.0
05:30 1.5 95.0 1021.6 0.0 W 0.0 0.0
05:35 1.4 95.0 1021.6 0.0 W 0.0 0.0
05:35 1.4 95.0 1021.8 0.0 WNW 0.0 0.0
05:45 1.4 95.0 1022.0 0.0 WNW 0.0 0.0
05:50 1.4 95.0 1021.9 0.0 WNW 0.0 0.0
05:55 1.3 95.0 1022.1 0.0 WNW 0.0 0.0
06:00 1.3 95.0 1022.0 0.0 WNW 0.0 0.0
06:05 1.3 95.0 1022.0 0.0 WNW 0.0 0.0
06:10 1.3 95.0 1022.0 0.0 WSW 0.0 0.0
06:15 1.4 95.0 1022.0 0.0 WSW 1.6 0.0
06:20 1.5 95.0 1022.0 0.0 WSW 1.6 0.0
06:25 1.6 95.0 1022.1 0.0 WSW 0.0 0.0
06:30 1.7 95.0 1022.5 1.6 WSW 1.6 0.0
06:35 1.8 95.0 1022.5 0.0 WSW 3.2 0.0
06:35 1.8 96.0 1022.4 0.0 WSW 3.2 0.0
06:45 1.8 95.0 1022.4 0.0 WSW 0.0 0.0
06:50 1.8 95.0 1022.4 0.0 WSW 0.0 0.0
06:55 1.8 96.0 1022.5 0.0 WSW 0.0 0.0
07:00 2.0 96.0 1022.6 0.0 WSW 3.2 0.0
07:05 2.1 96.0 1022.6 0.0 WSW 3.2 0.0
07:10 2.1 96.0 1022.6 0.0 WSW 1.6 0.0
07:15 2.1 96.0 1022.7 0.0 WSW 1.6 0.0
07:20 2.1 96.0 1022.9 0.0 WSW 1.6 0.0
07:25 2.1 96.0 1022.8 0.0 WSW 1.6 0.0
07:30 2.1 96.0 1023.1 0.0 WSW 1.6 0.0
07:35 2.1 95.0 1023.4 0.0 WSW 1.6 0.0
07:35 2.0 95.0 1023.4 0.0 WSW 1.6 0.0
07:45 2.1 96.0 1023.4 0.0 WSW 0.0 0.0
07:50 2.2 96.0 1023.4 0.0 WSW 0.0 0.0
07:55 2.3 96.0 1023.4 0.0 WSW 0.0 0.0
08:00 2.4 96.0 1023.5 0.0 WSW 0.0 0.0
08:05 2.5 96.0 1023.6 0.0 WSW 1.6 0.0
08:10 2.6 96.0 1023.6 0.0 WSW 1.6 0.0
08:15 2.7 96.0 1023.7 1.6 WSW 1.6 0.0
08:20 2.7 96.0 1023.6 0.0 WSW 1.6 0.0
08:25 2.8 96.0 1023.6 1.6 WSW 3.2 0.0
08:30 2.9 96.0 1023.7 1.6 WSW 3.2 0.0
08:35 2.9 96.0 1023.6 0.0 WSW 3.2 0.0
08:35 3.0 96.0 1023.6 0.0 WSW 3.2 0.0
08:45 3.1 96.0 1023.8 0.0 WSW 0.0 0.0
08:50 3.1 96.0 1024.1 0.0 WSW 0.0 0.0
08:55 3.2 96.0 1024.1 1.6 NW 4.8 0.0
09:00 3.3 96.0 1024.0 0.0 NW 4.8 0.0
09:05 3.5 96.0 1023.9 0.0 WNW 1.6 0.0
09:10 3.6 96.0 1023.9 1.6 NW 1.6 0.0
09:15 3.6 96.0 1024.0 0.0 NW 4.8 0.0
09:20 3.7 96.0 1024.0 0.0 NW 3.2 0.0
09:25 3.7 96.0 1024.1 0.0 NW 0.0 0.0
09:30 3.7 96.0 1024.3 0.0 NW 0.0 0.0
09:35 3.8 96.0 1024.3 0.0 NW 0.0 0.0
09:35 3.8 96.0 1024.3 0.0 NW 0.0 0.0
09:45 4.0 96.0 1024.4 0.0 NW 0.0 0.0
09:50 4.1 96.0 1024.4 0.0 NW 0.0 0.0
09:55 4.1 96.0 1024.4 0.0 NW 0.0 0.0
10:00 4.1 96.0 1024.5 0.0 NW 0.0 0.0
10:05 4.2 96.0 1024.5 0.0 NW 0.0 0.0
10:10 4.3 96.0 1024.5 0.0 ENE 4.8 0.0
10:15 4.4 96.0 1024.5 0.0 ENE 4.8 0.0
10:20 4.6 96.0 1024.4 0.0 ENE 1.6 0.0
10:25 4.7 96.0 1024.6 0.0 ENE 0.0 0.0
10:30 4.7 96.0 1024.5 0.0 WNW 3.2 0.0
10:35 4.8 96.0 1024.6 3.2 W 6.4 0.0
10:35 4.7 96.0 1024.5 3.2 NNE 6.4 0.0
10:45 4.8 96.0 1024.5 0.0 NNW 4.8 0.0
10:50 4.7 96.0 1024.6 0.0 NW 4.8 0.0
10:55 4.8 96.0 1024.5 0.0 NNW 4.8 0.0
11:00 4.8 96.0 1024.5 1.6 NNW 3.2 0.0
11:05 4.8 96.0 1024.5 0.0 WNW 4.8 0.0
11:10 4.8 96.0 1024.5 0.0 WNW 4.8 0.0
11:15 4.9 96.0 1024.4 0.0 NW 1.6 0.0
11:20 4.9 96.0 1024.3 1.6 N 4.8 0.0
11:25 5.0 96.0 1024.3 0.0 N 4.8 0.0
11:30 5.1 96.0 1024.2 1.6 N 3.2 0.0
11:35 5.2 96.0 1024.2 0.0 N 4.8 0.0
11:35 5.1 96.0 1024.1 0.0 N 4.8 0.0
11:45 5.2 96.0 1024.0 1.6 N 3.2 0.0
11:50 5.2 96.0 1023.9 1.6 N 3.2 0.0
11:55 5.2 95.0 1023.7 1.6 N 4.8 0.0
12:00 5.3 95.0 1023.7 0.0 N 3.2 0.0
12:05 5.4 95.0 1023.6 3.2 NNE 3.2 0.0
12:10 5.6 95.0 1023.5 0.0 NNE 3.2 0.0
12:15 5.6 95.0 1023.3 0.0 NNE 0.0 0.0
12:20 5.7 95.0 1023.3 3.2 NNE 3.2 0.0
12:25 5.8 95.0 1023.2 1.6 NNE 4.8 0.0
12:30 5.9 95.0 1023.2 0.0 NNE 3.2 0.0
12:35 6.1 94.0 1023.2 1.6 NNE 4.8 0.0
12:35 6.1 94.0 1023.2 0.0 NNE 6.4 0.0
12:45 6.2 93.0 1023.1 0.0 NNE 6.4 0.0
12:50 6.2 93.0 1023.1 3.2 NNE 6.4 0.0
12:55 6.3 92.0 1022.9 1.6 NNE 4.8 0.0
13:00 6.4 92.0 1022.9 0.0 NNE 4.8 0.0
13:05 6.6 92.0 1022.8 1.6 NNE 3.2 0.0
13:10 6.8 91.0 1022.8 0.0 NNE 3.2 0.0
13:15 7.0 91.0 1022.7 0.0 NNE 3.2 0.0
13:20 7.3 90.0 1022.6 0.0 NNE 3.2 0.0
13:25 7.6 90.0 1022.6 0.0 NNE 1.6 0.0
13:30 7.7 88.0 1022.4 1.6 WNW 3.2 0.0
13:35 7.8 87.0 1022.4 3.2 NNW 3.2 0.0
13:35 7.8 88.0 1022.4 3.2 NW 3.2 0.0
13:45 7.9 87.0 1022.3 0.0 WNW 4.8 0.0
13:50 8.0 86.0 1022.2 0.0 NW 0.0 0.0
13:55 8.1 86.0 1022.1 0.0 NW 0.0 0.0
14:00 8.2 86.0 1022.0 0.0 NW 0.0 0.0
14:05 8.2 86.0 1022.0 0.0 NW 0.0 0.0
14:10 8.3 86.0 1022.0 1.6 WNW 4.8 0.0
14:15 8.5 86.0 1021.9 0.0 NNW 4.8 0.0
14:20 8.7 85.0 1022.0 1.6 W 6.4 0.0
14:25 8.8 85.0 1021.9 0.0 W 6.4 0.0
14:30 9.1 86.0 1022.0 1.6 N 4.8 0.8
14:35 9.4 85.0 1022.0 1.6 N 4.8 4.0
14:35 9.7 85.0 1021.9 1.6 N 4.8 2.0
14:45 10.3 85.0 1021.9 0.0 NNE 4.8 0.6
14:50 10.4 80.0 1022.0 0.0 NNE 1.6 0.0
14:55 10.2 81.0 1021.9 0.0 NNE 1.6 0.0
15:00 10.1 80.0 1021.9 0.0 NNE 0.0 0.0
15:05 10.1 82.0 1022.1 0.0 NNE 3.2 0.0
15:10 10.0 80.0 1022.0 0.0 NNE 3.2 0.0
15:15 10.0 81.0 1022.1 0.0 NNE 0.0 0.0
15:20 10.1 81.0 1022.2 0.0 NNE 0.0 0.0
15:25 10.3 81.0 1022.1 0.0 NNE 0.0 0.0
15:30 10.3 81.0 1022.1 0.0 NNE 0.0 0.0
15:35 10.5 80.0 1022.1 0.0 W 4.8 0.0
15:35 10.6 80.0 1022.2 3.2 W 4.8 0.0
15:45 10.7 80.0 1022.3 3.2 W 6.4 0.0
15:50 10.7 81.0 1022.2 1.6 W 6.4 0.0
15:55 10.7 80.0 1022.2 0.0 W 4.8 0.0
16:00 10.6 80.0 1022.2 0.0 W 3.2 0.0
16:05 10.6 80.0 1022.3 0.0 W 0.0 0.0
16:10 10.4 80.0 1022.4 0.0 W 0.0 0.0
16:15 10.4 80.0 1022.3 0.0 W 0.0 0.0
16:20 10.4 80.0 1022.3 0.0 W 0.0 0.0
16:25 10.3 79.0 1022.3 0.0 W 0.0 0.0
16:30 10.3 81.0 1022.5 0.0 W 0.0 0.0
16:35 10.2 81.0 1022.5 0.0 W 0.0 0.0
16:35 10.1 81.0 1022.5 0.0 W 0.0 0.0
16:45 9.9 81.0 1022.6 0.0 W 0.0 0.0
16:50 9.9 80.0 1022.7 0.0 W 0.0 0.0
16:55 9.8 80.0 1022.8 0.0 W 0.0 0.0
17:00 9.7 80.0 1022.7 0.0 W 0.0 0.0
17:05 9.6 81.0 1022.8 0.0 W 0.0 0.0
17:10 9.3 83.0 1022.9 0.0 W 0.0 0.0
17:15 9.1 84.0 1023.0 0.0 W 0.0 0.0
17:20 8.9 85.0 1022.9 0.0 W 0.0 0.0
17:25 8.8 86.0 1023.1 0.0 W 0.0 0.0
17:30 8.6 86.0 1023.1 0.0 W 0.0 0.0
17:35 8.4 86.0 1023.2 0.0 W 0.0 0.0
17:35 8.3 86.0 1023.2 0.0 W 0.0 0.0
17:45 8.1 87.0 1023.2 0.0 W 0.0 0.0
17:50 7.9 87.0 1023.2 1.6 W 1.6 0.0
17:55 7.8 87.0 1023.4 0.0 ESE 4.8 0.0
18:00 7.7 87.0 1023.4 1.6 SE 4.8 0.0
18:05 7.5 87.0 1023.4 0.0 SE 3.2 0.0
18:10 7.3 88.0 1023.3 1.6 SE 4.8 0.0
18:15 7.2 88.0 1023.4 0.0 SE 4.8 0.0
18:20 7.1 88.0 1023.3 0.0 SE 4.8 0.0
18:25 7.0 88.0 1023.4 0.0 SE 3.2 0.0
18:30 7.0 88.0 1023.3 1.6 SSE 4.8 0.0
18:35 6.8 88.0 1023.4 0.0 SSE 4.8 0.0
18:35 6.8 88.0 1023.4 0.0 SSE 3.2 0.0
18:45 6.7 88.0 1023.6 0.0 SSE 3.2 0.0
18:50 6.7 89.0 1023.4 0.0 SSE 3.2 0.0
18:55 6.6 89.0 1023.6 0.0 SSE 0.0 0.0
19:00 6.5 89.0 1023.7 0.0 SSE 0.0 0.0
19:05 6.4 89.0 1023.7 0.0 SSE 0.0 0.0
19:10 6.3 89.0 1023.8 0.0 SSE 0.0 0.0
19:15 6.3 90.0 1023.8 0.0 SSE 3.2 0.0
19:20 6.3 89.0 1023.7 0.0 SSE 3.2 0.0
19:25 6.2 90.0 1023.7 0.0 SSE 3.2 0.0
19:30 6.2 90.0 1023.7 0.0 SSE 3.2 0.0
19:35 6.2 90.0 1023.8 0.0 SSE 0.0 0.0
19:35 6.2 90.0 1023.9 0.0 SSE 0.0 0.0
19:45 6.3 91.0 1023.9 0.0 SSE 0.0 0.0
19:50 6.3 91.0 1023.9 0.0 SSE 0.0 0.0
19:55 6.4 90.0 1023.8 0.0 SSE 0.0 0.0
20:00 6.6 91.0 1024.0 0.0 SSE 0.0 0.0
20:05 6.6 90.0 1024.0 0.0 SSE 0.0 0.0
20:10 6.6 90.0 1024.0 0.0 SSE 0.0 0.0
20:15 6.6 90.0 1024.1 0.0 SSE 0.0 0.0
20:20 6.6 91.0 1024.1 0.0 SSE 0.0 0.0
20:25 6.7 91.0 1024.1 0.0 SSE 0.0 0.0
20:30 6.7 91.0 1024.0 0.0 SSE 0.0 0.0
20:35 6.8 91.0 1024.0 0.0 SSE 0.0 0.0
20:35 6.8 91.0 1024.1 0.0 SSE 0.0 0.0
20:45 6.9 91.0 1024.1 0.0 SSE 0.0 0.0
20:50 7.0 91.0 1024.0 0.0 SSE 0.0 0.0
20:55 7.0 91.0 1023.9 0.0 SSE 0.0 0.0
21:00 7.1 91.0 1023.9 0.0 SSE 0.0 0.0
21:05 7.1 91.0 1023.8 0.0 SSE 0.0 0.0
21:10 7.1 91.0 1023.9 0.0 SSE 0.0 0.0
21:15 7.2 92.0 1023.9 1.6 NW 3.2 0.0
21:20 7.2 91.0 1024.0 0.0 NW 3.2 0.0
21:25 7.2 91.0 1023.8 1.6 NW 1.6 0.0
21:30 7.2 91.0 1023.9 0.0 NW 3.2 0.0
21:35 7.2 91.0 1023.8 0.0 W 4.8 0.0
21:35 7.2 91.0 1023.9 0.0 W 4.8 0.0
21:45 7.1 91.0 1023.9 0.0 W 1.6 0.0
21:50 7.1 91.0 1023.9 0.0 W 1.6 0.0
Màxima 11.6 96.0 1024.6 3.2 W 6.4 4.0
Mínima 1.3 79.0 1020.9
Total 8.4